Lexington Weather

Lexington, Massachusetts, USA

46°F
9/19/2020 8:44am 
  • Lexington Conditions: Clear
  • Temperature: 45.9°F / 7.7°CWarmer 2.7°F than last hour.
  • Dew Point: 36.0°FIncreased 0.6°Fsince last hour.
  • Relative Humidity: 68%Decreased 6.0% since last hour.
  • Wind: Wind from ENE ENE Calm, 10-min avg: 1 mph, gust: 3 mph
  • Barometer: 30.26 inRising 0.02  inHg/hr Rising Slowly
  • Visibility: 10 miles
  • Rain Today: 0.00 in
  •   
Southeast Middlesex County - Special Weather Statement
 - SEE ALL NEARBY ALERTS -

Regional Weather Roundup
for Boston / Norton, MA

        
000
ASUS41 KBOX 122005
RWRBOX

REGIONAL WEATHER ROUNDUP
NATIONAL WEATHER SERVICE BOSTON/NORTON MA
400 PM EDT SAT SEP 12 2020

NOTE:  "FAIR" INDICATES FEW OR NO CLOUDS BELOW 12,000 FEET WITH NO 
SIGNIFICANT WEATHER AND/OR OBSTRUCTIONS TO VISIBILITY.

MAZALL-122100-
EASTERN MASSACHUSETTS
  
CITY           SKY/WX    TMP DP  RH WIND       PRES   REMARKS
BOSTON         MOSUNNY   64  49  57 SE10      30.34F                  
BEVERLY        SUNNY     66  47  50 E12       30.33F                  
LAWRENCE       PTSUNNY   67  49  52 VRB5      30.34F                  
BEDFORD        MOSUNNY   68  46  45 SE13      30.31F                  
BLUE HILL        N/A     65  46  50 E8        30.32F                  
NORWOOD        SUNNY     69  48  47 SE10      30.31F                  
MARSHFIELD     SUNNY     68  50  52 E10       30.33F                  
PLYMOUTH       SUNNY     67  47  48 E9        30.33F                  
TAUNTON        SUNNY     70  45  40 SE7       30.31F                  
NEW BEDFORD    SUNNY     71  47  42 E10       30.30F                  
$$

MAZALL-122100-
CAPE COD AND THE ISLANDS
  
CITY           SKY/WX    TMP DP  RH WIND       PRES   REMARKS
FALMOUTH       SUNNY     68  46  45 E15G21    30.31F                  
HYANNIS        SUNNY     69  44  40 E9        30.30F                  
CHATHAM        SUNNY     65  47  52 E9        30.33F                  
PROVINCETOWN   SUNNY     67  49  52 E8        30.34F                  
NANTUCKET      SUNNY     66  52  60 NE14      30.30F                  
MARTHAS VNYRD  SUNNY     67  47  48 E16       30.31F                  
$$
 
MAZALL-122100-
CENTRAL AND WESTERN MASSACHUSETTS
  
CITY           SKY/WX    TMP DP  RH WIND       PRES   REMARKS
WORCESTER      SUNNY     66  48  52 E7        30.32F                  
FITCHBURG      MOSUNNY   69  45  41 S9        30.31F                  
ORANGE         MOSUNNY   69  49  48 E7        30.31F                  
SPRINGFIELD    PTSUNNY   72  49  44 SE5       30.28F                  
WESTFIELD      MOSUNNY   71  50  47 CALM      30.28F                  
NORTH ADAMS    MOSUNNY   70  50  49 SE12      30.28F                  
PITTSFIELD     MOSUNNY   68  50  52 VRB6G16   30.28F                  
$$
 
RIZALL-122100-
RHODE ISLAND
  
CITY           SKY/WX    TMP DP  RH WIND       PRES   REMARKS
PROVIDENCE     PTSUNNY   71  47  42 E8        30.30F                  
NEWPORT        SUNNY     69  50  50 E8        30.30F                  
BLOCK ISLAND   SUNNY     65  50  58 E13G20    30.31F                  
SMITHFIELD     SUNNY     70  48  45 SE9       30.31F                  
WESTERLY       SUNNY     69  50  50 E13G21    30.30F                  
$$
 
CTZALL-122100-
CONNECTICUT
  
CITY           SKY/WX    TMP DP  RH WIND       PRES   REMARKS
BRADLEY INTL   PTSUNNY   73  47  39 VRB3      30.27F                  
HARTFORD       MOSUNNY   73  47  39 S6        30.27F                  
BRIDGEPORT     SUNNY     69  52  54 E10       30.29F                  
DANBURY        SUNNY     69  49  48 VRB6      30.30F                  
GROTON         SUNNY     67  52  58 E16       30.28F                  
NEW HAVEN      SUNNY     72  55  55 SE10      30.29F                  
CHESTER        NOT AVBL                                               
MERIDEN        MOSUNNY   73  47  39 VRB6      30.28F                  
WILLIMANTIC    SUNNY     73  46  38 SE5       30.28F                  
OXFORD         MOSUNNY   70  54  56 SE6       30.30F                  
$$

MEZ002-015-021-024-NHZ003-005-008-011-012-014-VTZ005-008-122100-
NORTHERN NEW ENGLAND
  
CITY           SKY/WX    TMP DP  RH WIND       PRES   REMARKS
PORTLAND ME    MOSUNNY   66  40  38 S8        30.34F                  
BANGOR ME      MOSUNNY   69  43  38 S5        30.30F                  
CONCORD NH     MOSUNNY   69  46  43 SE8       30.31F                  
MANCHESTER NH  PTSUNNY   70  47  43 S12       30.30F                  
NASHUA NH      CLOUDY    68  50  52 VRB5      30.32F                  
PORTSMOUTH NH  PTSUNNY   66  45  45 E6        30.32F                  
JAFFREY NH     PTSUNNY   67  47  48 VRB7      30.32F                  
KEENE NH       SUNNY     70  50  49 S8        30.30F                  
BURLINGTON VT  PTSUNNY   72  46  39 S10       30.23F                  
MT. WASHINGTON MOSUNNY   45  34  65 SW13G18     N/A                   
$$

NYZ052-076-122100-
EASTERN NEW YORK
  
CITY           SKY/WX    TMP DP  RH WIND       PRES   REMARKS
ALBANY         PTSUNNY   68  52  56 S13G21    30.26F                  
NEW YORK CITY  PTSUNNY   72  54  53 NE15      30.27F                  
$$
 
ANZALL-122100-
MARINE OBSERVATIONS
  
STATION/POSITION TIME  TEMP    WIND        PRES    VSBY  WAVE
                       AIR SEA DIR/SP/G                  HT/PER
                 (UTC) (F)     (DEG/KT/KT) (MB)    (MI)  (FT/S)
BOSTON BUOY      1950   63 67  110/ 10/ 12 1026.0F         3/ 6
BUZZARDS BAY     1900           80/ 18/ 19 1027.4F
NANTUCKET SOUND  1940      71   80/ 14/ 19   N/A
MASS BAY-STELLWA 1904   62     150/  8/ 12 1025.5F  1 7/8  3/ 5
ISLE OF SHOALS   1900   62     110/  8/  9 1027.2F
S OF BLOCK IS    1926      70                N/A           5/ 5
$$

......................KEY.........................
  SKY/WX - SKY CONDITION/PRESENT WEATHER
  TMP    - TEMPERATURE IN FAHRENHEIT
  DWPT   - DEWPOINT IN FAHRENHEIT
  RH     - RELATIVE HUMIDITY IN PERCENT
  WIND   - DIRECTION AND SPEED IN MPH
  PRES   - MEAN SEA LEVEL PRESSURE IN INCHES OF HG
  WCI    - WIND CHILL INDEX
  VSB    - VISIBILITY IN MILES
  HX     - HEAT INDEX
  TC     - TEMPERATURE IN CELSIUS
  VRB    - VARIABLE WIND DIRECTION
  N/A    - NOT AVAILABLE
  
      

Other recent Regional Weather Roundups

Sat Sep 19, 8:04am

Sat Sep 19, 7:04am

Sat Sep 19, 6:04am

Sat Sep 19, 5:04am

Sat Sep 19, 4:04am

Sat Sep 19, 3:04am

Sat Sep 19, 2:04am

Sat Sep 19, 1:04am

Sat Sep 19, 12:04am

Fri Sep 18, 11:05pm

Fri Sep 18, 10:04pm

Fri Sep 18, 9:04pm

Fri Sep 18, 8:04pm

Fri Sep 18, 7:04pm

Fri Sep 18, 6:04pm

Fri Sep 18, 5:05pm

Fri Sep 18, 4:04pm

Fri Sep 18, 3:05pm

Fri Sep 18, 2:04pm

Fri Sep 18, 1:04pm

Fri Sep 18, 12:04pm

Fri Sep 18, 11:05am

Fri Sep 18, 10:05am

Fri Sep 18, 9:04am

Fri Sep 18, 8:04am

Fri Sep 18, 7:04am

Fri Sep 18, 6:04am

Fri Sep 18, 5:04am

Fri Sep 18, 4:04am

Fri Sep 18, 3:04am

Fri Sep 18, 2:04am

Fri Sep 18, 1:04am

Fri Sep 18, 12:04am

Thu Sep 17, 11:05pm

Thu Sep 17, 10:04pm

Thu Sep 17, 9:04pm

Thu Sep 17, 8:05pm

Thu Sep 17, 7:04pm

Thu Sep 17, 6:04pm

Thu Sep 17, 5:04pm

Thu Sep 17, 4:04pm

Thu Sep 17, 3:05pm

Thu Sep 17, 2:04pm

Thu Sep 17, 1:04pm

Thu Sep 17, 12:04pm

Thu Sep 17, 11:04am

Thu Sep 17, 10:04am

Thu Sep 17, 9:04am

Thu Sep 17, 8:04am

Thu Sep 17, 7:04am

Thu Sep 17, 6:04am

Thu Sep 17, 5:04am

Thu Sep 17, 4:04am

Thu Sep 17, 3:04am

Thu Sep 17, 2:05am

Thu Sep 17, 1:05am

Thu Sep 17, 12:04am

Wed Sep 16, 11:04pm

Wed Sep 16, 10:04pm

Wed Sep 16, 9:04pm

Wed Sep 16, 8:05pm

Wed Sep 16, 7:04pm

Wed Sep 16, 6:04pm

Wed Sep 16, 5:04pm

Wed Sep 16, 4:04pm

Wed Sep 16, 3:04pm

Wed Sep 16, 2:04pm

Wed Sep 16, 1:04pm

Wed Sep 16, 12:04pm

Wed Sep 16, 11:04am

Wed Sep 16, 10:04am

Wed Sep 16, 9:04am

Wed Sep 16, 8:04am

Wed Sep 16, 7:04am

Wed Sep 16, 6:04am

Wed Sep 16, 5:04am

Wed Sep 16, 4:04am

Wed Sep 16, 3:04am

Wed Sep 16, 2:04am

Wed Sep 16, 1:04am

Wed Sep 16, 12:05am

Tue Sep 15, 11:04pm

Tue Sep 15, 10:04pm

Tue Sep 15, 9:04pm

Tue Sep 15, 8:04pm

Tue Sep 15, 7:04pm

Tue Sep 15, 6:04pm

Tue Sep 15, 5:04pm

Tue Sep 15, 4:05pm

Tue Sep 15, 3:04pm

Tue Sep 15, 2:04pm

Tue Sep 15, 1:04pm

Tue Sep 15, 12:04pm

Tue Sep 15, 11:04am

Tue Sep 15, 10:04am

Tue Sep 15, 9:04am

Tue Sep 15, 8:04am

Tue Sep 15, 7:04am

Tue Sep 15, 6:04am

Tue Sep 15, 5:04am

Tue Sep 15, 4:04am

Tue Sep 15, 3:04am

Tue Sep 15, 2:04am

Tue Sep 15, 1:04am

Tue Sep 15, 12:05am

Mon Sep 14, 11:04pm

Mon Sep 14, 10:04pm

Mon Sep 14, 9:04pm

Mon Sep 14, 8:04pm

Mon Sep 14, 7:04pm

Mon Sep 14, 6:04pm

Mon Sep 14, 5:04pm

Mon Sep 14, 4:05pm

Mon Sep 14, 3:04pm

Mon Sep 14, 2:05pm

Mon Sep 14, 1:04pm

Mon Sep 14, 12:04pm

Mon Sep 14, 11:04am

Mon Sep 14, 10:05am

Mon Sep 14, 9:04am

Mon Sep 14, 8:04am

Mon Sep 14, 7:04am

Mon Sep 14, 6:04am

Mon Sep 14, 5:04am

Mon Sep 14, 4:04am

Mon Sep 14, 3:04am

Mon Sep 14, 2:04am

Mon Sep 14, 1:04am

Mon Sep 14, 12:04am

Sun Sep 13, 11:05pm

Sun Sep 13, 10:04pm

Sun Sep 13, 9:04pm

Sun Sep 13, 8:04pm

Sun Sep 13, 7:05pm

Sun Sep 13, 6:05pm

Sun Sep 13, 5:05pm

Sun Sep 13, 4:04pm

Sun Sep 13, 3:04pm

Sun Sep 13, 2:04pm

Sun Sep 13, 1:04pm

Sun Sep 13, 12:04pm

Sun Sep 13, 11:05am

Sun Sep 13, 10:04am

Sun Sep 13, 9:04am

Sun Sep 13, 8:04am

Sun Sep 13, 7:04am

Sun Sep 13, 6:04am

Sun Sep 13, 5:04am

Sun Sep 13, 4:04am

Sun Sep 13, 3:04am

Sun Sep 13, 2:04am

Sun Sep 13, 1:04am

Sun Sep 13, 12:04am

Sat Sep 12, 11:04pm

Sat Sep 12, 10:04pm

Sat Sep 12, 9:04pm

Sat Sep 12, 8:04pm

Sat Sep 12, 7:05pm

Sat Sep 12, 6:04pm

Sat Sep 12, 5:04pm

Sat Sep 12, 3:04pm

Sat Sep 12, 2:04pm

Sat Sep 12, 1:05pm

Sat Sep 12, 12:04pm

Sat Sep 12, 11:04am

Sat Sep 12, 10:04am

Sat Sep 12, 9:04am

Meta data:

ID: afc3564b-8d94-41bb-9479-53a0deab7a5c
Link: https://api.weather.gov/products/afc3564b-8d94-41bb-9479-53a0deab7a5c